This demonstration page uses our WeatherBlox Daily Observations layout. Learn more.

Left ArrowRight Arrow

Hourly Observations for November 8, 2015

Temp ( °F °C ) Dew Point ( °F °C ) Humidity (%) Winds ( mph kmh ) Pressure ( in mb ) Visibility ( mi km ) Precip ( " mm )
12:53 am 00:53 Clear 39 3.9 28 -2.2 65 65 SSW 9 15 30.32 1027 10 16 0.00 0.00
1:53 am 01:53 Clear 38 3.3 28 -2.2 68 68 S 8 13 30.30 1026 10 16 0.00 0.00
2:53 am 02:53 Clear 37 2.8 28 -2.2 70 70 S 6 9 30.30 1026 10 16 0.00 0.00
3:53 am 03:53 Clear 37 2.8 28 -2.2 70 70 S 7 11 30.29 1026 10 16 0.00 0.00
4:53 am 04:53 Clear 36 2.2 28 -2.2 73 73 S 8 13 30.27 1025 10 16 0.00 0.00
5:53 am 05:53 Clear 36 2.2 29 -1.7 76 76 S 8 13 30.27 1025 10 16 0.00 0.00
6:53 am 06:53 Clear 36 2.2 29 -1.7 76 76 S 7 11 30.27 1025 10 16 0.00 0.00
7:53 am 07:53 Sunny 37 2.8 30 -1.1 76 76 S 9 15 30.27 1025 10 16 0.00 0.00
8:53 am 08:53 Sunny 44 6.7 32 0 63 63 SSW 14 22 30.27 1025 10 16 0.00 0.00
9:53 am 09:53 Sunny 48 8.9 33 0.6 56 56 S 20 31 30.25 1024 10 16 0.00 0.00
10:53 am 10:53 Sunny 53 11.7 34 1.1 48 48 SSW 18 30 30.23 1024 10 16 0.00 0.00
11:53 am 11:53 Sunny 56 13.3 35 1.7 46 46 SSW 21 33 30.19 1022 10 16 0.00 0.00
12:53 pm 12:53 Sunny 58 14.4 35 1.7 42 42 SSW 20 31 30.15 1021 10 16 0.00 0.00
1:53 pm 13:53 Sunny 60 15.6 36 2.2 41 41 S 16 26 30.12 1020 10 16 0.00 0.00
2:53 pm 14:53 Sunny 61 16.1 35 1.7 38 38 SSW 21 33 30.10 1019 10 16 0.00 0.00
3:53 pm 15:53 Sunny 61 16.1 36 2.2 39 39 S 16 26 30.09 1019 10 16 0.00 0.00
4:53 pm 16:53 Sunny 59 15 36 2.2 42 42 S 14 22 30.09 1019 10 16 0.00 0.00
5:53 pm 17:53 Clear 53 11.7 36 2.2 52 52 S 7 11 30.11 1020 10 16 0.00 0.00
6:53 pm 18:53 Clear 51 10.6 36 2.2 56 56 S 8 13 30.11 1020 10 16 0.00 0.00
7:53 pm 19:53 Clear 48 8.9 36 2.2 63 63 S 9 15 30.11 1020 10 16 0.00 0.00
8:53 pm 20:53 Clear 46 7.8 35 1.7 66 66 S 10 17 30.11 1020 10 16 0.00 0.00
9:53 pm 21:53 Clear 45 7.2 34 1.1 66 66 S 9 15 30.10 1019 10 16 0.00 0.00
10:53 pm 22:53 Clear 44 6.7 33 0.6 65 65 S 9 15 30.10 1019 10 16 0.00 0.00
11:53 pm 23:53 Clear 42 5.6 33 0.6 71 71 S 8 13 30.09 1019 10 16 0.00 0.00

Powered by AerisWeather